Year,Month,Day,Hour,Minute,Value (Times are PST for temperature in C)
2016,06,29,00,00,18.20
2016,06,29,00,01,18.10
2016,06,29,00,02,18.10
2016,06,29,00,03,18.10
2016,06,29,00,04,18.00
2016,06,29,00,05,17.90
2016,06,29,00,06,17.90
2016,06,29,00,07,17.90
2016,06,29,00,08,17.80
2016,06,29,00,09,17.80
2016,06,29,00,10,17.70
2016,06,29,00,11,17.70
2016,06,29,00,12,17.70
2016,06,29,00,13,17.70
2016,06,29,00,14,17.60
2016,06,29,00,15,17.60
2016,06,29,00,16,17.60
2016,06,29,00,17,17.60
2016,06,29,00,18,17.50
2016,06,29,00,19,17.60
2016,06,29,00,20,17.50
2016,06,29,00,21,17.50
2016,06,29,00,22,17.50
2016,06,29,00,23,17.60
2016,06,29,00,24,17.60
2016,06,29,00,25,17.60
2016,06,29,00,26,17.60
2016,06,29,00,27,17.50
2016,06,29,00,28,17.50
2016,06,29,00,29,17.50
2016,06,29,00,30,17.50
2016,06,29,00,31,17.50
2016,06,29,00,32,17.50
2016,06,29,00,33,17.50
2016,06,29,00,34,17.50
2016,06,29,00,35,17.50
2016,06,29,00,36,17.50
2016,06,29,00,37,17.50
2016,06,29,00,38,17.40
2016,06,29,00,39,17.40
2016,06,29,00,40,17.40
2016,06,29,00,41,17.40
2016,06,29,00,42,17.40
2016,06,29,00,43,17.40
2016,06,29,00,44,17.30
2016,06,29,00,45,17.30
2016,06,29,00,46,17.30
2016,06,29,00,47,17.30
2016,06,29,00,48,17.20
2016,06,29,00,49,17.20
2016,06,29,00,50,17.20
2016,06,29,00,51,17.20
2016,06,29,00,52,17.10
2016,06,29,00,53,17.10
2016,06,29,00,54,17.10
2016,06,29,00,55,17.10
2016,06,29,00,56,17.00
2016,06,29,00,57,17.00
2016,06,29,00,58,17.00
2016,06,29,00,59,16.90
2016,06,29,01,00,16.90
2016,06,29,01,01,16.90
2016,06,29,01,02,16.90
2016,06,29,01,03,16.90
2016,06,29,01,04,16.80
2016,06,29,01,05,16.80
2016,06,29,01,06,16.80
2016,06,29,01,07,16.80
2016,06,29,01,08,16.80
2016,06,29,01,09,16.70
2016,06,29,01,10,16.70
2016,06,29,01,11,16.70
2016,06,29,01,12,16.70
2016,06,29,01,13,16.70
2016,06,29,01,14,16.70
2016,06,29,01,15,16.60
2016,06,29,01,16,16.60
2016,06,29,01,17,16.60
2016,06,29,01,18,16.60
2016,06,29,01,19,16.60
2016,06,29,01,20,16.60
2016,06,29,01,21,16.60
2016,06,29,01,22,16.50
2016,06,29,01,23,16.50
2016,06,29,01,24,16.50
2016,06,29,01,25,16.40
2016,06,29,01,26,16.40
2016,06,29,01,27,16.40
2016,06,29,01,28,16.40
2016,06,29,01,29,16.40
2016,06,29,01,30,16.30
2016,06,29,01,31,16.30
2016,06,29,01,32,16.30
2016,06,29,01,33,16.30
2016,06,29,01,34,16.20
2016,06,29,01,35,16.20
2016,06,29,01,36,16.20
2016,06,29,01,37,16.20
2016,06,29,01,38,16.20
2016,06,29,01,39,16.10
2016,06,29,01,40,16.10
2016,06,29,01,41,16.10
2016,06,29,01,42,16.10
2016,06,29,01,43,16.00
2016,06,29,01,44,16.00
2016,06,29,01,45,16.00
2016,06,29,01,46,15.90
2016,06,29,01,47,15.90
2016,06,29,01,48,15.90
2016,06,29,01,49,15.90
2016,06,29,01,50,15.90
2016,06,29,01,51,15.90
2016,06,29,01,52,15.90
2016,06,29,01,53,15.80
2016,06,29,01,54,15.80
2016,06,29,01,55,15.80
2016,06,29,01,56,15.80
2016,06,29,01,57,15.80
2016,06,29,01,58,15.70
2016,06,29,01,59,15.70
2016,06,29,02,00,15.70
2016,06,29,02,01,15.70
2016,06,29,02,02,15.70
2016,06,29,02,03,15.70
2016,06,29,02,04,15.70
2016,06,29,02,05,15.70
2016,06,29,02,06,15.60
2016,06,29,02,07,15.60
2016,06,29,02,08,15.60
2016,06,29,02,09,15.60
2016,06,29,02,10,15.60
2016,06,29,02,11,15.50
2016,06,29,02,12,15.50
2016,06,29,02,13,15.50
2016,06,29,02,14,15.40
2016,06,29,02,15,15.40
2016,06,29,02,16,15.40
2016,06,29,02,17,15.40
2016,06,29,02,18,15.30
2016,06,29,02,19,15.30
2016,06,29,02,20,15.30
2016,06,29,02,21,15.30
2016,06,29,02,22,15.30
2016,06,29,02,23,15.30
2016,06,29,02,24,15.30
2016,06,29,02,25,15.30
2016,06,29,02,26,15.30
2016,06,29,02,27,15.30
2016,06,29,02,28,15.30
2016,06,29,02,29,15.20
2016,06,29,02,30,15.20
2016,06,29,02,31,15.20
2016,06,29,02,32,15.20
2016,06,29,02,33,15.20
2016,06,29,02,34,15.20
2016,06,29,02,35,15.20
2016,06,29,02,36,15.20
2016,06,29,02,37,15.20
2016,06,29,02,38,15.10
2016,06,29,02,39,15.10
2016,06,29,02,40,15.10
2016,06,29,02,41,15.10
2016,06,29,02,42,15.00
2016,06,29,02,43,15.10
2016,06,29,02,44,15.00
2016,06,29,02,45,15.00
2016,06,29,02,46,15.00
2016,06,29,02,47,15.00
2016,06,29,02,48,15.00
2016,06,29,02,49,15.00
2016,06,29,02,50,15.00
2016,06,29,02,51,15.00
2016,06,29,02,52,15.00
2016,06,29,02,53,15.00
2016,06,29,02,54,15.00
2016,06,29,02,55,15.00
2016,06,29,02,56,15.00
2016,06,29,02,57,15.00
2016,06,29,02,58,15.00
2016,06,29,02,59,14.90
2016,06,29,03,00,14.90
2016,06,29,03,01,14.80
2016,06,29,03,02,14.80
2016,06,29,03,03,14.80
2016,06,29,03,04,14.70
2016,06,29,03,05,14.70
2016,06,29,03,06,14.70
2016,06,29,03,07,14.70
2016,06,29,03,08,14.70
2016,06,29,03,09,14.60
2016,06,29,03,10,14.60
2016,06,29,03,11,14.60
2016,06,29,03,12,14.60
2016,06,29,03,13,14.50
2016,06,29,03,14,14.50
2016,06,29,03,15,14.50
2016,06,29,03,16,14.50
2016,06,29,03,17,14.50
2016,06,29,03,18,14.40
2016,06,29,03,19,14.40
2016,06,29,03,20,14.40
2016,06,29,03,21,14.40
2016,06,29,03,22,14.40
2016,06,29,03,23,14.40
2016,06,29,03,24,14.50
2016,06,29,03,25,14.40
2016,06,29,03,26,14.40
2016,06,29,03,27,14.40
2016,06,29,03,28,14.40
2016,06,29,03,29,14.40
2016,06,29,03,30,14.40
2016,06,29,03,31,14.40
2016,06,29,03,32,14.30
2016,06,29,03,33,14.30
2016,06,29,03,34,14.30
2016,06,29,03,35,14.30
2016,06,29,03,36,14.30
2016,06,29,03,37,14.30
2016,06,29,03,38,14.30
2016,06,29,03,39,14.30
2016,06,29,03,40,14.30
2016,06,29,03,41,14.30
2016,06,29,03,42,14.30
2016,06,29,03,43,14.30
2016,06,29,03,44,14.30
2016,06,29,03,45,14.20
2016,06,29,03,46,14.20
2016,06,29,03,47,14.20
2016,06,29,03,48,14.20
2016,06,29,03,49,14.20
2016,06,29,03,50,14.20
2016,06,29,03,51,14.20
2016,06,29,03,52,14.20
2016,06,29,03,53,14.20
2016,06,29,03,54,14.20
2016,06,29,03,55,14.20
2016,06,29,03,56,14.20
2016,06,29,03,57,14.20
2016,06,29,03,58,14.20
2016,06,29,03,59,14.20
2016,06,29,04,00,14.20
2016,06,29,04,01,14.20
2016,06,29,04,02,14.20
2016,06,29,04,03,14.20
2016,06,29,04,04,14.20
2016,06,29,04,05,14.20
2016,06,29,04,06,14.20
2016,06,29,04,07,14.20
2016,06,29,04,08,14.20
2016,06,29,04,09,14.20
2016,06,29,04,10,14.20
2016,06,29,04,11,14.20
2016,06,29,04,12,14.20
2016,06,29,04,13,14.20
2016,06,29,04,14,14.20
2016,06,29,04,15,14.20
2016,06,29,04,16,14.10
2016,06,29,04,17,14.10
2016,06,29,04,18,14.10
2016,06,29,04,19,14.10
2016,06,29,04,20,14.10
2016,06,29,04,21,14.10
2016,06,29,04,22,14.10
2016,06,29,04,23,14.10
2016,06,29,04,24,14.10
2016,06,29,04,25,14.10
2016,06,29,04,26,14.00
2016,06,29,04,27,14.00
2016,06,29,04,28,14.00
2016,06,29,04,29,14.00
2016,06,29,04,30,13.90
2016,06,29,04,31,13.90
2016,06,29,04,32,13.90
2016,06,29,04,33,13.90
2016,06,29,04,34,13.90
2016,06,29,04,35,13.80
2016,06,29,04,36,13.80
2016,06,29,04,37,13.80
2016,06,29,04,38,13.80
2016,06,29,04,39,13.80
2016,06,29,04,40,13.80
2016,06,29,04,41,13.80
2016,06,29,04,42,13.80
2016,06,29,04,43,13.80
2016,06,29,04,44,13.80
2016,06,29,04,45,13.80
2016,06,29,04,46,13.80
2016,06,29,04,47,13.80
2016,06,29,04,48,13.80
2016,06,29,04,49,13.80
2016,06,29,04,50,13.80
2016,06,29,04,51,13.80
2016,06,29,04,52,13.80
2016,06,29,04,53,13.80
2016,06,29,04,54,13.80
2016,06,29,04,55,13.80
2016,06,29,04,56,13.80
2016,06,29,04,57,13.80
2016,06,29,04,58,13.80
2016,06,29,04,59,13.80
2016,06,29,05,00,13.80
2016,06,29,05,01,13.80
2016,06,29,05,02,13.70
2016,06,29,05,03,13.70
2016,06,29,05,04,13.70
2016,06,29,05,05,13.70
2016,06,29,05,06,13.60
2016,06,29,05,07,13.60
2016,06,29,05,08,13.60
2016,06,29,05,09,13.60
2016,06,29,05,10,13.50
2016,06,29,05,11,13.50
2016,06,29,05,12,13.40
2016,06,29,05,13,13.40
2016,06,29,05,14,13.40
2016,06,29,05,15,13.40
2016,06,29,05,16,13.30
2016,06,29,05,17,13.30
2016,06,29,05,18,13.30
2016,06,29,05,19,13.30
2016,06,29,05,20,13.30
2016,06,29,05,21,13.30
2016,06,29,05,22,13.20
2016,06,29,05,23,13.20
2016,06,29,05,24,13.20
2016,06,29,05,25,13.20
2016,06,29,05,26,13.20
2016,06,29,05,27,13.20
2016,06,29,05,28,13.20
2016,06,29,05,29,13.30
2016,06,29,05,30,13.30
2016,06,29,05,31,13.20
2016,06,29,05,32,13.20
2016,06,29,05,33,13.20
2016,06,29,05,34,13.20
2016,06,29,05,35,13.20
2016,06,29,05,36,13.20
2016,06,29,05,37,13.20
2016,06,29,05,38,13.20
2016,06,29,05,39,13.20
2016,06,29,05,40,13.20
2016,06,29,05,41,13.20
2016,06,29,05,42,13.20
2016,06,29,05,43,13.20
2016,06,29,05,44,13.20
2016,06,29,05,45,13.30
2016,06,29,05,46,13.30
2016,06,29,05,47,13.30
2016,06,29,05,48,13.30
2016,06,29,05,49,13.30
2016,06,29,05,50,13.30
2016,06,29,05,51,13.30
2016,06,29,05,52,13.30
2016,06,29,05,53,13.30
2016,06,29,05,54,13.30
2016,06,29,05,55,13.30
2016,06,29,05,56,13.30
2016,06,29,05,57,13.30
2016,06,29,05,58,13.30
2016,06,29,05,59,13.20
2016,06,29,06,00,13.20
2016,06,29,06,01,13.20
2016,06,29,06,02,13.20
2016,06,29,06,03,13.20
2016,06,29,06,04,13.20
2016,06,29,06,05,13.20
2016,06,29,06,06,13.20
2016,06,29,06,07,13.20
2016,06,29,06,08,13.20
2016,06,29,06,09,13.20
2016,06,29,06,10,13.20
2016,06,29,06,11,13.20
2016,06,29,06,12,13.20
2016,06,29,06,13,13.20
2016,06,29,06,14,13.20
2016,06,29,06,15,13.20
2016,06,29,06,16,13.20
2016,06,29,06,17,13.20
2016,06,29,06,18,13.20
2016,06,29,06,19,13.20
2016,06,29,06,20,13.20
2016,06,29,06,21,13.20
2016,06,29,06,22,13.20
2016,06,29,06,23,13.20
2016,06,29,06,24,13.20
2016,06,29,06,25,13.20
2016,06,29,06,26,13.20
2016,06,29,06,27,13.20
2016,06,29,06,28,13.20
2016,06,29,06,29,13.20
2016,06,29,06,30,13.20
2016,06,29,06,31,13.20
2016,06,29,06,32,13.20
2016,06,29,06,33,13.20
2016,06,29,06,34,13.20
2016,06,29,06,35,13.20
2016,06,29,06,36,13.20
2016,06,29,06,37,13.20
2016,06,29,06,38,13.20
2016,06,29,06,39,13.20
2016,06,29,06,40,13.20
2016,06,29,06,41,13.20
2016,06,29,06,42,13.20
2016,06,29,06,43,13.20
2016,06,29,06,44,13.20
2016,06,29,06,45,13.20
2016,06,29,06,46,13.20
2016,06,29,06,47,13.20
2016,06,29,06,48,13.20
2016,06,29,06,49,13.30
2016,06,29,06,50,13.30
2016,06,29,06,51,13.30
2016,06,29,06,52,13.30
2016,06,29,06,53,13.30
2016,06,29,06,54,13.30
2016,06,29,06,55,13.30
2016,06,29,06,56,13.30
2016,06,29,06,57,13.40
2016,06,29,06,58,13.40
2016,06,29,06,59,13.40
2016,06,29,07,00,13.40
2016,06,29,07,01,13.40
2016,06,29,07,02,13.40
2016,06,29,07,03,13.40
2016,06,29,07,04,13.40
2016,06,29,07,05,13.40
2016,06,29,07,06,13.40
2016,06,29,07,07,13.40
2016,06,29,07,08,13.40
2016,06,29,07,09,13.40
2016,06,29,07,10,13.40
2016,06,29,07,11,13.40
2016,06,29,07,12,13.50
2016,06,29,07,13,13.50
2016,06,29,07,14,13.50
2016,06,29,07,15,13.50
2016,06,29,07,16,13.50
2016,06,29,07,17,13.50
2016,06,29,07,18,13.50
2016,06,29,07,19,13.50
2016,06,29,07,20,13.50
2016,06,29,07,21,13.50
2016,06,29,07,22,13.50
2016,06,29,07,23,13.50
2016,06,29,07,24,13.50
2016,06,29,07,25,13.60
2016,06,29,07,26,13.60
2016,06,29,07,27,13.60
2016,06,29,07,28,13.60
2016,06,29,07,29,13.60
2016,06,29,07,30,13.60
2016,06,29,07,31,13.60
2016,06,29,07,32,13.60
2016,06,29,07,33,13.60
2016,06,29,07,34,13.60
2016,06,29,07,35,13.60
2016,06,29,07,36,13.60
2016,06,29,07,37,13.60
2016,06,29,07,38,13.70
2016,06,29,07,39,13.60
2016,06,29,07,40,13.70
2016,06,29,07,41,13.70
2016,06,29,07,42,13.70
2016,06,29,07,43,13.70
2016,06,29,07,44,13.70
2016,06,29,07,45,13.70
2016,06,29,07,46,13.70
2016,06,29,07,47,13.70
2016,06,29,07,48,13.70
2016,06,29,07,49,13.70
2016,06,29,07,50,13.70
2016,06,29,07,51,13.70
2016,06,29,07,52,13.70
2016,06,29,07,53,13.80
2016,06,29,07,54,13.80
2016,06,29,07,55,13.80
2016,06,29,07,56,13.80
2016,06,29,07,57,13.80
2016,06,29,07,58,13.80
2016,06,29,07,59,13.80
2016,06,29,08,00,13.90
2016,06,29,08,01,13.90
2016,06,29,08,02,13.90
2016,06,29,08,03,13.90
2016,06,29,08,04,14.00
2016,06,29,08,05,14.00
2016,06,29,08,06,14.00
2016,06,29,08,07,14.10
2016,06,29,08,08,14.10
2016,06,29,08,09,14.10
2016,06,29,08,10,14.10
2016,06,29,08,11,14.10
2016,06,29,08,12,14.10
2016,06,29,08,13,14.20
2016,06,29,08,14,14.20
2016,06,29,08,15,14.20
2016,06,29,08,16,14.20
2016,06,29,08,17,14.20
2016,06,29,08,18,14.20
2016,06,29,08,19,14.30
2016,06,29,08,20,14.30
2016,06,29,08,21,14.30
2016,06,29,08,22,14.30
2016,06,29,08,23,14.30
2016,06,29,08,24,14.40
2016,06,29,08,25,14.40
2016,06,29,08,26,14.40
2016,06,29,08,27,14.40
2016,06,29,08,28,14.50
2016,06,29,08,29,14.50
2016,06,29,08,30,14.60
2016,06,29,08,31,14.60
2016,06,29,08,32,14.60
2016,06,29,08,33,14.60
2016,06,29,08,34,14.70
2016,06,29,08,35,14.70
2016,06,29,08,36,14.70
2016,06,29,08,37,14.80
2016,06,29,08,38,14.80
2016,06,29,08,39,14.80
2016,06,29,08,40,14.90
2016,06,29,08,41,15.00
2016,06,29,08,42,15.00
2016,06,29,08,43,15.00
2016,06,29,08,44,15.00
2016,06,29,08,45,15.00
2016,06,29,08,46,15.00
2016,06,29,08,47,15.00
2016,06,29,08,48,15.00
2016,06,29,08,49,15.00
2016,06,29,08,50,15.00
2016,06,29,08,51,15.10
2016,06,29,08,52,15.20
2016,06,29,08,53,15.20
2016,06,29,08,54,15.20
2016,06,29,08,55,15.20
2016,06,29,08,56,15.30
2016,06,29,08,57,15.30
2016,06,29,08,58,15.30
2016,06,29,08,59,15.30
2016,06,29,09,00,15.40
2016,06,29,09,01,15.40
2016,06,29,09,02,15.40
2016,06,29,09,03,15.40
2016,06,29,09,04,15.50
2016,06,29,09,05,15.50
2016,06,29,09,06,15.60
2016,06,29,09,07,15.60
2016,06,29,09,08,15.60
2016,06,29,09,09,15.70
2016,06,29,09,10,15.70
2016,06,29,09,11,15.70
2016,06,29,09,12,15.70
2016,06,29,09,13,15.80
2016,06,29,09,14,15.80
2016,06,29,09,15,15.80
2016,06,29,09,16,15.90
2016,06,29,09,17,15.90
2016,06,29,09,18,15.90
2016,06,29,09,19,16.00
2016,06,29,09,20,16.00
2016,06,29,09,21,16.10
2016,06,29,09,22,16.20
2016,06,29,09,23,16.20
2016,06,29,09,24,16.30
2016,06,29,09,25,16.40
2016,06,29,09,26,16.50
2016,06,29,09,27,16.50
2016,06,29,09,28,16.60
2016,06,29,09,29,16.70
2016,06,29,09,30,16.90
2016,06,29,09,31,17.00
2016,06,29,09,32,17.20
2016,06,29,09,33,17.30
2016,06,29,09,34,17.50
2016,06,29,09,35,17.60
2016,06,29,09,36,17.80
2016,06,29,09,37,18.00
2016,06,29,09,38,18.20
2016,06,29,09,39,18.30
2016,06,29,09,40,18.40
2016,06,29,09,41,18.50
2016,06,29,09,42,18.70
2016,06,29,09,43,18.80
2016,06,29,09,44,18.90
2016,06,29,09,45,19.00
2016,06,29,09,46,19.10
2016,06,29,09,47,19.10
2016,06,29,09,48,19.20
2016,06,29,09,49,19.30
2016,06,29,09,50,19.40
2016,06,29,09,51,19.50
2016,06,29,09,52,19.50
2016,06,29,09,53,19.60
2016,06,29,09,54,19.60
2016,06,29,09,55,19.70
2016,06,29,09,56,19.70
2016,06,29,09,57,19.80
2016,06,29,09,58,19.80
2016,06,29,09,59,19.90
2016,06,29,10,00,19.90
2016,06,29,10,01,20.00
2016,06,29,10,02,20.00
2016,06,29,10,03,20.10
2016,06,29,10,04,20.10
2016,06,29,10,05,20.20
2016,06,29,10,06,20.20
2016,06,29,10,07,20.20
2016,06,29,10,08,20.30
2016,06,29,10,09,20.30
2016,06,29,10,10,20.40
2016,06,29,10,11,20.40
2016,06,29,10,12,20.50
2016,06,29,10,13,20.50
2016,06,29,10,14,20.60
2016,06,29,10,15,20.60
2016,06,29,10,16,20.70
2016,06,29,10,17,20.70
2016,06,29,10,18,20.70
2016,06,29,10,19,20.80
2016,06,29,10,20,20.80
2016,06,29,10,21,20.80
2016,06,29,10,22,20.80
2016,06,29,10,23,20.90
2016,06,29,10,24,20.90
2016,06,29,10,25,21.00
2016,06,29,10,26,21.10
2016,06,29,10,27,21.10
2016,06,29,10,28,21.10
2016,06,29,10,29,21.20
2016,06,29,10,30,21.20
2016,06,29,10,31,21.20
2016,06,29,10,32,21.20
2016,06,29,10,33,21.20
2016,06,29,10,34,21.30
2016,06,29,10,35,21.30
2016,06,29,10,36,21.30
2016,06,29,10,37,21.30
2016,06,29,10,38,21.40
2016,06,29,10,39,21.40
2016,06,29,10,40,21.40
2016,06,29,10,41,21.50
2016,06,29,10,42,21.50
2016,06,29,10,43,21.50
2016,06,29,10,44,21.60
2016,06,29,10,45,21.60
2016,06,29,10,46,21.60
2016,06,29,10,47,21.60
2016,06,29,10,48,21.70
2016,06,29,10,49,21.80
2016,06,29,10,50,21.80
2016,06,29,10,51,21.90
2016,06,29,10,52,21.90
2016,06,29,10,53,22.00
2016,06,29,10,54,22.10
2016,06,29,10,55,22.20
2016,06,29,10,56,22.20
2016,06,29,10,57,22.30
2016,06,29,10,58,22.30
2016,06,29,10,59,22.40
2016,06,29,11,00,22.40
2016,06,29,11,01,22.40
2016,06,29,11,02,22.50
2016,06,29,11,03,22.50
2016,06,29,11,04,22.60
2016,06,29,11,05,22.60
2016,06,29,11,06,22.70
2016,06,29,11,07,22.70
2016,06,29,11,08,22.70
2016,06,29,11,09,22.80
2016,06,29,11,10,22.80
2016,06,29,11,11,22.90
2016,06,29,11,12,22.90
2016,06,29,11,13,23.00
2016,06,29,11,14,23.00
2016,06,29,11,15,23.10
2016,06,29,11,16,23.10
2016,06,29,11,17,23.20
2016,06,29,11,18,23.20
2016,06,29,11,19,23.20
2016,06,29,11,20,23.30
2016,06,29,11,21,23.30
2016,06,29,11,22,23.30
2016,06,29,11,23,23.40
2016,06,29,11,24,23.40
2016,06,29,11,25,23.40
2016,06,29,11,26,23.40
2016,06,29,11,27,23.40
2016,06,29,11,28,23.40
2016,06,29,11,29,23.40
2016,06,29,11,30,23.50
2016,06,29,11,31,23.50
2016,06,29,11,32,23.50
2016,06,29,11,33,23.50
2016,06,29,11,34,23.60
2016,06,29,11,35,23.60
2016,06,29,11,36,23.70
2016,06,29,11,37,23.70
2016,06,29,11,38,23.70
2016,06,29,11,39,23.70
2016,06,29,11,40,23.70
2016,06,29,11,41,23.80
2016,06,29,11,42,23.80
2016,06,29,11,43,23.80
2016,06,29,11,44,23.80
2016,06,29,11,45,23.90
2016,06,29,11,46,23.90
2016,06,29,11,47,24.00
2016,06,29,11,48,24.00
2016,06,29,11,49,24.10
2016,06,29,11,50,24.10
2016,06,29,11,51,24.20
2016,06,29,11,52,24.20
2016,06,29,11,53,24.20
2016,06,29,11,54,24.20
2016,06,29,11,55,24.30
2016,06,29,11,56,24.30
2016,06,29,11,57,24.40
2016,06,29,11,58,24.40
2016,06,29,11,59,24.40
2016,06,29,12,00,24.40
2016,06,29,12,01,24.50
2016,06,29,12,02,24.40
2016,06,29,12,03,24.40
2016,06,29,12,04,24.40
2016,06,29,12,05,24.40
2016,06,29,12,06,24.50
2016,06,29,12,07,24.50
2016,06,29,12,08,24.60
2016,06,29,12,09,24.60
2016,06,29,12,10,24.60
2016,06,29,12,11,24.60
2016,06,29,12,12,24.60
2016,06,29,12,13,24.60
2016,06,29,12,14,24.70
2016,06,29,12,15,24.70
2016,06,29,12,16,24.70
2016,06,29,12,17,24.70
2016,06,29,12,18,24.70
2016,06,29,12,19,24.70
2016,06,29,12,20,24.70
2016,06,29,12,21,24.80
2016,06,29,12,22,24.80
2016,06,29,12,23,24.80
2016,06,29,12,24,24.80
2016,06,29,12,25,24.80
2016,06,29,12,26,24.80
2016,06,29,12,27,24.80
2016,06,29,12,28,24.80
2016,06,29,12,29,24.90
2016,06,29,12,30,24.90
2016,06,29,12,31,24.90
2016,06,29,12,32,24.90
2016,06,29,12,33,24.90
2016,06,29,12,34,24.90
2016,06,29,12,35,24.90
2016,06,29,12,36,25.00
2016,06,29,12,37,25.00
2016,06,29,12,38,25.10
2016,06,29,12,39,25.20
2016,06,29,12,40,25.20
2016,06,29,12,41,25.30
2016,06,29,12,42,25.30
2016,06,29,12,43,25.30
2016,06,29,12,44,25.40
2016,06,29,12,45,25.40
2016,06,29,12,46,25.40
2016,06,29,12,47,25.40
2016,06,29,12,48,25.40
2016,06,29,12,49,25.40
2016,06,29,12,50,25.50
2016,06,29,12,51,25.50
2016,06,29,12,52,25.50
2016,06,29,12,53,25.50
2016,06,29,12,54,25.40
2016,06,29,12,55,25.30
2016,06,29,12,56,25.20
2016,06,29,12,57,25.10
2016,06,29,12,58,25.10
2016,06,29,12,59,25.00
2016,06,29,13,00,24.90
2016,06,29,13,01,24.90
2016,06,29,13,02,24.80
2016,06,29,13,03,24.80
2016,06,29,13,04,24.80
2016,06,29,13,05,24.80
2016,06,29,13,06,24.70
2016,06,29,13,07,24.70
2016,06,29,13,08,24.70
2016,06,29,13,09,24.70
2016,06,29,13,10,24.60
2016,06,29,13,11,24.60
2016,06,29,13,12,24.60
2016,06,29,13,13,24.60
2016,06,29,13,14,24.60
2016,06,29,13,15,24.60
2016,06,29,13,16,24.60
2016,06,29,13,17,24.60
2016,06,29,13,18,24.60
2016,06,29,13,19,24.60
2016,06,29,13,20,24.60
2016,06,29,13,21,24.60
2016,06,29,13,22,24.60
2016,06,29,13,23,24.60
2016,06,29,13,24,24.60
2016,06,29,13,25,24.60
2016,06,29,13,26,24.60
2016,06,29,13,27,24.60
2016,06,29,13,28,24.60
2016,06,29,13,29,24.60
2016,06,29,13,30,24.60
2016,06,29,13,31,24.60
2016,06,29,13,32,24.60
2016,06,29,13,33,24.70
2016,06,29,13,34,24.70
2016,06,29,13,35,24.80
2016,06,29,13,36,24.80
2016,06,29,13,37,24.90
2016,06,29,13,38,24.90
2016,06,29,13,39,24.90
2016,06,29,13,40,24.90
2016,06,29,13,41,24.90
2016,06,29,13,42,25.00
2016,06,29,13,43,25.10
2016,06,29,13,44,25.10
2016,06,29,13,45,25.20
2016,06,29,13,46,25.20
2016,06,29,13,47,25.20
2016,06,29,13,48,25.20
2016,06,29,13,49,25.20
2016,06,29,13,50,25.20
2016,06,29,13,51,25.20
2016,06,29,13,52,25.20
2016,06,29,13,53,25.20
2016,06,29,13,54,25.20
2016,06,29,13,55,25.20
2016,06,29,13,56,25.10
2016,06,29,13,57,25.10
2016,06,29,13,58,25.20
2016,06,29,13,59,25.20
2016,06,29,14,00,25.20
2016,06,29,14,01,25.30
2016,06,29,14,02,25.30
2016,06,29,14,03,25.30
2016,06,29,14,04,25.40
2016,06,29,14,05,25.40
2016,06,29,14,06,25.50
2016,06,29,14,07,25.60
2016,06,29,14,08,25.60
2016,06,29,14,09,25.70
2016,06,29,14,10,25.80
2016,06,29,14,11,25.80
2016,06,29,14,12,25.90
2016,06,29,14,13,25.90
2016,06,29,14,14,25.90
2016,06,29,14,15,26.00
2016,06,29,14,16,26.10
2016,06,29,14,17,26.20
2016,06,29,14,18,26.20
2016,06,29,14,19,26.20
2016,06,29,14,20,26.30
2016,06,29,14,21,26.30
2016,06,29,14,22,26.30
2016,06,29,14,23,26.30
2016,06,29,14,24,26.20
2016,06,29,14,25,26.20
2016,06,29,14,26,26.20
2016,06,29,14,27,26.10
2016,06,29,14,28,26.10
2016,06,29,14,29,26.10
2016,06,29,14,30,26.10
2016,06,29,14,31,26.20
2016,06,29,14,32,26.20
2016,06,29,14,33,26.20
2016,06,29,14,34,26.30
2016,06,29,14,35,26.30
2016,06,29,14,36,26.30
2016,06,29,14,37,26.30
2016,06,29,14,38,26.30
2016,06,29,14,39,26.40
2016,06,29,14,40,26.40
2016,06,29,14,41,26.50
2016,06,29,14,42,26.50
2016,06,29,14,43,26.40
2016,06,29,14,44,26.40
2016,06,29,14,45,26.30
2016,06,29,14,46,26.30
2016,06,29,14,47,26.20
2016,06,29,14,48,26.20
2016,06,29,14,49,26.10
2016,06,29,14,50,26.10
2016,06,29,14,51,26.10
2016,06,29,14,52,26.10
2016,06,29,14,53,26.10
2016,06,29,14,54,26.10
2016,06,29,14,55,26.10
2016,06,29,14,56,26.10
2016,06,29,14,57,26.10
2016,06,29,14,58,26.10
2016,06,29,14,59,26.10
2016,06,29,15,00,26.20
2016,06,29,15,01,26.20
2016,06,29,15,02,26.30
2016,06,29,15,03,26.30
2016,06,29,15,04,26.40
2016,06,29,15,05,26.40
2016,06,29,15,06,26.40
2016,06,29,15,07,26.40
2016,06,29,15,08,26.40
2016,06,29,15,09,26.40
2016,06,29,15,10,26.50
2016,06,29,15,11,26.60
2016,06,29,15,12,26.60
2016,06,29,15,13,26.50
2016,06,29,15,14,26.50
2016,06,29,15,15,26.40
2016,06,29,15,16,26.40
2016,06,29,15,17,26.40
2016,06,29,15,18,26.40
2016,06,29,15,19,26.50
2016,06,29,15,20,26.50
2016,06,29,15,21,26.50
2016,06,29,15,22,26.50
2016,06,29,15,23,26.50
2016,06,29,15,24,26.50
2016,06,29,15,25,26.50
2016,06,29,15,26,26.40
2016,06,29,15,27,26.40
2016,06,29,15,28,26.40
2016,06,29,15,29,26.30
2016,06,29,15,30,26.20
2016,06,29,15,31,26.20
2016,06,29,15,32,26.10
2016,06,29,15,33,26.10
2016,06,29,15,34,26.10
2016,06,29,15,35,26.10
2016,06,29,15,36,26.10
2016,06,29,15,37,26.10
2016,06,29,15,38,26.10
2016,06,29,15,39,26.10
2016,06,29,15,40,26.10
2016,06,29,15,41,26.10
2016,06,29,15,42,26.20
2016,06,29,15,43,26.20
2016,06,29,15,44,26.30
2016,06,29,15,45,26.30
2016,06,29,15,46,26.20
2016,06,29,15,47,26.20
2016,06,29,15,48,26.10
2016,06,29,15,49,26.10
2016,06,29,15,50,26.00
2016,06,29,15,51,25.90
2016,06,29,15,52,25.90
2016,06,29,15,53,25.90
2016,06,29,15,54,25.90
2016,06,29,15,55,25.90
2016,06,29,15,56,26.00
2016,06,29,15,57,26.10
2016,06,29,15,58,26.20
2016,06,29,15,59,26.30
2016,06,29,16,00,26.40
2016,06,29,16,01,26.60
2016,06,29,16,02,26.80
2016,06,29,16,03,26.90
2016,06,29,16,04,27.00
2016,06,29,16,05,27.00
2016,06,29,16,06,27.10
2016,06,29,16,07,27.20
2016,06,29,16,08,27.20
2016,06,29,16,09,27.30
2016,06,29,16,10,27.30
2016,06,29,16,11,27.30
2016,06,29,16,12,27.30
2016,06,29,16,13,27.30
2016,06,29,16,14,27.30
2016,06,29,16,15,27.30
2016,06,29,16,16,27.30
2016,06,29,16,17,27.30
2016,06,29,16,18,27.20
2016,06,29,16,19,27.30
2016,06,29,16,20,27.30
2016,06,29,16,21,27.30
2016,06,29,16,22,27.30
2016,06,29,16,23,27.30
2016,06,29,16,24,27.30
2016,06,29,16,25,27.30
2016,06,29,16,26,27.30
2016,06,29,16,27,27.30
2016,06,29,16,28,27.30
2016,06,29,16,29,27.20
2016,06,29,16,30,27.20
2016,06,29,16,31,27.10
2016,06,29,16,32,27.10
2016,06,29,16,33,27.00
2016,06,29,16,34,27.00
2016,06,29,16,35,26.90
2016,06,29,16,36,26.90
2016,06,29,16,37,26.90
2016,06,29,16,38,27.00
2016,06,29,16,39,27.00
2016,06,29,16,40,27.00
2016,06,29,16,41,27.00
2016,06,29,16,42,27.00
2016,06,29,16,43,26.90
2016,06,29,16,44,26.90
2016,06,29,16,45,26.80
2016,06,29,16,46,26.80
2016,06,29,16,47,26.70
2016,06,29,16,48,26.60
2016,06,29,16,49,26.60
2016,06,29,16,50,26.60
2016,06,29,16,51,26.50
2016,06,29,16,52,26.50
2016,06,29,16,53,26.50
2016,06,29,16,54,26.40
2016,06,29,16,55,26.40
2016,06,29,16,56,26.40
2016,06,29,16,57,26.40
2016,06,29,16,58,26.40
2016,06,29,16,59,26.40
2016,06,29,17,00,26.30
2016,06,29,17,01,26.30
2016,06,29,17,02,26.30
2016,06,29,17,03,26.30
2016,06,29,17,04,26.30
2016,06,29,17,05,26.30
2016,06,29,17,06,26.30
2016,06,29,17,07,26.30
2016,06,29,17,08,26.30
2016,06,29,17,09,26.30
2016,06,29,17,10,26.30
2016,06,29,17,11,26.30
2016,06,29,17,12,26.40
2016,06,29,17,13,26.40
2016,06,29,17,14,26.40
2016,06,29,17,15,26.40
2016,06,29,17,16,26.40
2016,06,29,17,17,26.50
2016,06,29,17,18,26.60
2016,06,29,17,19,26.60